TimeMST,TemperatureF,Dew PointF,Humidity,Sea Level PressureIn,VisibilityMPH,Wind Direction,Wind SpeedMPH,Gust SpeedMPH,PrecipitationIn,Events,Conditions,WindDirDegrees,DateUTC
12:53 AM,26.1,1.9,35,30.21,10.0,SSW,16.1,-,N/A,,Clear,200,2012-12-04 07:53:00
1:53 AM,23.0,1.9,40,30.23,10.0,South,12.7,-,N/A,,Clear,190,2012-12-04 08:53:00
2:53 AM,21.0,3.9,48,30.27,10.0,SSE,8.1,-,N/A,,Clear,160,2012-12-04 09:53:00
3:53 AM,23.0,6.1,48,30.27,10.0,West,6.9,-,N/A,,Clear,260,2012-12-04 10:53:00
4:53 AM,25.0,5.0,43,30.29,10.0,Calm,Calm,-,N/A,,Clear,0,2012-12-04 11:53:00
5:53 AM,19.9,6.1,55,30.35,10.0,South,9.2,-,N/A,,Clear,180,2012-12-04 12:53:00
6:53 AM,23.0,6.1,48,30.35,10.0,South,12.7,-,N/A,,Clear,190,2012-12-04 13:53:00
7:53 AM,27.0,6.1,41,30.37,10.0,Calm,Calm,-,N/A,,Clear,0,2012-12-04 14:53:00
8:53 AM,35.1,3.0,26,30.33,10.0,SSW,10.4,18.4,N/A,,Clear,200,2012-12-04 15:53:00
9:53 AM,37.9,3.0,23,30.30,10.0,WSW,23.0,33.4,N/A,,Clear,250,2012-12-04 16:53:00
10:53 AM,39.9,3.9,22,30.26,10.0,SW,6.9,-,N/A,,Mostly Cloudy,220,2012-12-04 17:53:00
11:53 AM,44.1,5.0,20,30.20,10.0,WSW,25.3,29.9,N/A,,Scattered Clouds,240,2012-12-04 18:53:00
12:53 PM,46.9,6.1,19,30.17,10.0,SW,24.2,29.9,N/A,,Mostly Cloudy,220,2012-12-04 19:53:00
1:53 PM,45.0,8.1,22,30.18,10.0,WSW,24.2,31.1,N/A,,Scattered Clouds,250,2012-12-04 20:53:00
2:53 PM,44.1,10.9,26,30.17,10.0,WSW,25.3,35.7,N/A,,Clear,250,2012-12-04 21:53:00
3:53 PM,44.1,16.0,32,30.21,10.0,SW,13.8,23.0,N/A,,Clear,230,2012-12-04 22:53:00
4:53 PM,42.1,19.0,40,30.20,10.0,SSW,9.2,20.7,N/A,,Scattered Clouds,200,2012-12-04 23:53:00
5:53 PM,39.9,15.1,36,30.25,10.0,West,17.3,28.8,N/A,,Clear,260,2012-12-05 00:53:00
6:53 PM,39.0,16.0,39,30.24,10.0,Variable,3.5,-,N/A,,Clear,0,2012-12-05 01:53:00
7:53 PM,39.0,18.0,43,30.22,10.0,WSW,10.4,-,N/A,,Clear,240,2012-12-05 02:53:00
8:53 PM,39.9,19.0,43,30.14,10.0,SW,23.0,32.2,N/A,,Clear,230,2012-12-05 03:53:00
9:53 PM,39.9,19.0,43,30.14,10.0,WSW,21.9,-,N/A,,Clear,250,2012-12-05 04:53:00
10:53 PM,39.0,19.0,45,30.11,10.0,WSW,18.4,-,N/A,,Clear,240,2012-12-05 05:53:00
11:53 PM,39.0,19.0,45,30.04,10.0,WSW,25.3,33.4,N/A,,Clear,240,2012-12-05 06:53:00